Bellefontaine, OH

4:54 PM EST on February 23, 2017 (GMT -0500)
Bellefontaine

Weather History for KEDJ - March, 2014

Change the Weather History Date:

Thursday, March 27, 2014

  Actual Average (KDAY) Record (KDAY)
Temperature  
Mean Temperature 40 °F -  
Max Temperature 51 °F 52 °F 83 °F (1910)
Min Temperature 28 °F 33 °F 11 °F (1955)
Degree Days  
Heating Degree Days 26    
Moisture  
Dew Point 24 °F    
Average Humidity 59    
Maximum Humidity 76    
Minimum Humidity 38    
Precipitation  
Precipitation 0.09 in - - ()
Sea Level Pressure  
Sea Level Pressure 29.97 in    
Wind  
Wind Speed 13 mph (SSE)    
Max Wind Speed 22 mph    
Max Gust Speed 28 mph    
Visibility 10 miles    
Events      
Averages and records for this station are not official NWS values.
T = Trace of Precipitation, MM = Missing Value Source: NWS Daily Summary

Daily Weather History Graph

Daily Weather History Graph

Search for Another Location

Airport or City:

Trip Planner

Search our weather history database for the weather conditions in past years. The results will help you decide how hot, cold, wet, or windy it might be!

Date:

Astronomy

Mar. 27, 2014 Rise Set
Actual Time 7:27 AM EDT 7:54 PM EDT
Civil Twilight 6:59 AM EDT 8:21 PM EDT
Nautical Twilight 6:27 AM EDT 8:54 PM EDT
Astronomical Twilight 5:54 AM EDT 9:27 PM EDT
Moon 5:18 AM EDT (3/27) 4:40 PM EDT (3/27)
Length of Visible Light 13h 22m
Length of Day
12h 27m
Waning Crescent, 13% of the Moon is Illuminated
Mar 27
Waning Crescent
Mar 30
New
Apr 7
First Quarter
Apr 15
Full
Apr 22
Last Quarter

Hourly Weather History & Observations

Time (EDT) Temp. Windchill Dew Point Humidity Pressure Visibility Wind Dir Wind Speed Gust Speed Precip Events Conditions
12:10 AM 28.4 °F 18.5 °F 17.6 °F 64% 30.19 in 10.0 mi SSE 11.5 mph - 0.00 in   Clear
12:30 AM 30.2 °F 20.8 °F 17.6 °F 60% 30.18 in 10.0 mi SSE 11.5 mph - 0.00 in   Clear
12:50 AM 30.2 °F 20.2 °F 17.6 °F 60% 30.18 in 10.0 mi SSE 12.7 mph - 0.00 in   Mostly Cloudy
1:10 AM 30.2 °F 20.2 °F 17.6 °F 60% 30.17 in 10.0 mi SSE 12.7 mph - 0.00 in   Mostly Cloudy
1:30 AM 30.2 °F 20.2 °F 17.6 °F 60% 30.16 in 10.0 mi SSE 12.7 mph 18.4 mph 0.00 in   Partly Cloudy
1:50 AM 30.2 °F 20.8 °F 17.6 °F 60% 30.15 in 10.0 mi SSE 11.5 mph - 0.00 in   Clear
2:10 AM 30.2 °F 21.3 °F 17.6 °F 60% 30.15 in 10.0 mi SSE 10.4 mph - 0.00 in   Clear
2:30 AM 30.2 °F 21.3 °F 17.6 °F 60% 30.15 in 10.0 mi SSE 10.4 mph - 0.00 in   Clear
2:50 AM 28.4 °F 19.1 °F 19.4 °F 69% 30.14 in 10.0 mi SSE 10.4 mph - 0.00 in   Clear
3:10 AM 28.4 °F 19.1 °F 19.4 °F 69% 30.13 in 10.0 mi SSE 10.4 mph - 0.00 in   Clear
3:30 AM 30.2 °F 21.3 °F 19.4 °F 64% 30.13 in 10.0 mi SSE 10.4 mph - 0.00 in   Clear
3:50 AM 28.4 °F 19.1 °F 19.4 °F 69% 30.12 in 10.0 mi SSE 10.4 mph - 0.00 in   Clear
4:10 AM 28.4 °F 18.5 °F 19.4 °F 69% 30.11 in 10.0 mi SSE 11.5 mph - 0.00 in   Clear
4:30 AM 28.4 °F 18.0 °F 19.4 °F 69% 30.12 in 10.0 mi SSE 12.7 mph - 0.00 in   Clear
4:50 AM 30.2 °F 19.3 °F 19.4 °F 64% 30.11 in 10.0 mi SSE 15.0 mph - 0.00 in   Clear
5:10 AM 30.2 °F 19.8 °F 19.4 °F 64% 30.11 in 10.0 mi SSE 13.8 mph - 0.00 in   Scattered Clouds
5:30 AM 30.2 °F 20.2 °F 19.4 °F 64% 30.10 in 10.0 mi SSE 12.7 mph - 0.00 in   Mostly Cloudy
5:50 AM 30.2 °F 19.8 °F 19.4 °F 64% 30.10 in 10.0 mi SSE 13.8 mph - 0.00 in   Overcast
6:10 AM 30.2 °F 20.2 °F 21.2 °F 69% 30.11 in 10.0 mi SSE 12.7 mph - 0.00 in   Mostly Cloudy
6:30 AM 32.0 °F 22.1 °F 19.4 °F 60% 30.10 in 10.0 mi SSE 13.8 mph - 0.00 in   Mostly Cloudy
6:50 AM 32.0 °F 22.1 °F 19.4 °F 60% 30.10 in 10.0 mi SSE 13.8 mph - 0.00 in   Partly Cloudy
7:10 AM 32.0 °F 22.5 °F 19.4 °F 60% 30.09 in 10.0 mi SSE 12.7 mph - 0.00 in   Clear
7:30 AM 32.0 °F 21.2 °F 19.4 °F 60% 30.09 in 10.0 mi SSE 16.1 mph 21.9 mph 0.00 in   Clear
7:50 AM 32.0 °F 22.1 °F 19.4 °F 60% 30.10 in 10.0 mi SSE 13.8 mph - 0.00 in   Clear
8:10 AM 32.0 °F 22.1 °F 19.4 °F 60% 30.11 in 10.0 mi SSE 13.8 mph 19.6 mph 0.00 in   Clear
8:30 AM 32.0 °F 22.1 °F 19.4 °F 60% 30.09 in 10.0 mi SSE 13.8 mph - 0.00 in   Clear
8:50 AM 32.0 °F 23.0 °F 19.4 °F 60% 30.10 in 10.0 mi SSE 11.5 mph 18.4 mph 0.00 in   Partly Cloudy
9:10 AM 32.0 °F 22.5 °F 21.2 °F 64% 30.09 in 10.0 mi SSE 12.7 mph - 0.00 in   Mostly Cloudy
9:30 AM 32.0 °F 21.6 °F 21.2 °F 64% 30.07 in 10.0 mi SSE 15.0 mph - 0.00 in   Scattered Clouds
9:50 AM 33.8 °F 24.3 °F 23.0 °F 65% 30.04 in 9.0 mi SE 13.8 mph - 0.00 in   Scattered Clouds
10:10 AM 33.8 °F 24.3 °F 21.2 °F 60% 30.05 in 10.0 mi SSE 13.8 mph 20.7 mph 0.00 in   Scattered Clouds
10:30 AM 35.6 °F 26.2 °F 21.2 °F 56% 30.04 in 10.0 mi SSE 15.0 mph 20.7 mph 0.00 in   Mostly Cloudy
10:50 AM 35.6 °F 26.2 °F 21.2 °F 56% 30.03 in 10.0 mi SSE 15.0 mph - 0.00 in   Scattered Clouds
11:10 AM 37.4 °F 27.5 °F 21.2 °F 52% 30.04 in 10.0 mi South 18.4 mph 24.2 mph 0.00 in   Partly Cloudy
11:30 AM 39.2 °F 30.8 °F 21.2 °F 49% 30.02 in 10.0 mi South 15.0 mph 20.7 mph 0.00 in   Scattered Clouds
11:50 AM 39.2 °F 30.5 °F 21.2 °F 49% 30.01 in 10.0 mi South 16.1 mph 21.9 mph 0.00 in   Mostly Cloudy
12:10 PM 39.2 °F 31.6 °F 21.2 °F 49% 30.00 in 10.0 mi SSE 12.7 mph 20.7 mph 0.00 in   Mostly Cloudy
12:30 PM 39.2 °F 31.6 °F 24.8 °F 56% 29.99 in 10.0 mi South 12.7 mph - 0.00 in   Mostly Cloudy
12:50 PM 39.2 °F 31.6 °F 26.6 °F 61% 29.98 in 7.0 mi SSE 12.7 mph 21.9 mph 0.00 in   Scattered Clouds
1:10 PM 39.2 °F 31.6 °F 26.6 °F 61% 29.98 in 10.0 mi South 12.7 mph - 0.00 in   Overcast
1:30 PM 39.2 °F 31.2 °F 26.6 °F 61% 29.96 in 10.0 mi SSE 13.8 mph - 0.00 in   Mostly Cloudy
1:50 PM 39.2 °F 30.8 °F 26.6 °F 61% 29.96 in 10.0 mi South 15.0 mph 19.6 mph 0.00 in   Mostly Cloudy
2:10 PM 42.8 °F 35.4 °F 26.6 °F 53% 29.95 in 10.0 mi SSE 15.0 mph - 0.00 in   Overcast
2:30 PM 42.8 °F 35.1 °F 24.8 °F 49% 29.94 in 10.0 mi South 16.1 mph 24.2 mph 0.00 in   Mostly Cloudy
2:50 PM 42.8 °F 35.4 °F 26.6 °F 53% 29.93 in 10.0 mi South 15.0 mph 23.0 mph 0.00 in   Overcast
3:10 PM 41.0 °F 32.8 °F 28.4 °F 61% 29.92 in 7.0 mi SSE 16.1 mph 23.0 mph 0.00 in   Mostly Cloudy
3:30 PM 41.0 °F 33.1 °F 30.2 °F 65% 29.91 in 8.0 mi South 15.0 mph 20.7 mph 0.00 in   Overcast
3:50 PM 41.0 °F 32.5 °F 28.4 °F 61% 29.90 in 10.0 mi South 17.3 mph 21.9 mph 0.00 in   Overcast
4:10 PM 42.8 °F 35.1 °F 28.4 °F 57% 29.89 in 8.0 mi SSE 16.1 mph 21.9 mph 0.00 in   Overcast
4:30 PM 42.8 °F 35.4 °F 26.6 °F 53% 29.87 in 10.0 mi SSE 15.0 mph 21.9 mph 0.00 in   Overcast
4:50 PM 44.6 °F 37.4 °F 26.6 °F 49% 29.86 in 10.0 mi SSE 16.1 mph 21.9 mph 0.00 in   Overcast
5:10 PM 44.6 °F 37.8 °F 28.4 °F 53% 29.85 in 10.0 mi SSE 15.0 mph - 0.00 in   Overcast
5:30 PM 44.6 °F 37.4 °F 28.4 °F 53% 29.84 in 10.0 mi SSE 16.1 mph 21.9 mph 0.00 in   Overcast
5:50 PM 48.2 °F - 28.4 °F 46% 29.83 in 10.0 mi SSE 16.1 mph 21.9 mph 0.00 in   Overcast
6:10 PM 48.2 °F - 28.4 °F 46% 29.82 in 10.0 mi SSE 16.1 mph 23.0 mph 0.00 in   Overcast
6:30 PM 51.8 °F - 26.6 °F 38% 29.80 in 10.0 mi South 17.3 mph 26.5 mph 0.00 in   Overcast
6:50 PM 51.8 °F - 26.6 °F 38% 29.78 in 10.0 mi SSE 17.3 mph 25.3 mph 0.00 in   Scattered Clouds
7:10 PM 50.0 °F - 28.4 °F 43% 29.77 in 10.0 mi SSE 19.6 mph 27.6 mph 0.00 in   Partly Cloudy
7:30 PM 51.8 °F - 28.4 °F 41% 29.77 in 10.0 mi South 18.4 mph 27.6 mph 0.00 in   Mostly Cloudy
7:50 PM 51.8 °F - 28.4 °F 41% 29.76 in 10.0 mi South 19.6 mph 25.3 mph 0.00 in   Mostly Cloudy
8:10 PM 48.2 °F - 32.0 °F 54% 29.74 in 10.0 mi South 19.6 mph 26.5 mph 0.00 in   Mostly Cloudy
8:30 PM 50.0 °F - 28.4 °F 43% 29.73 in 10.0 mi SSE 19.6 mph 25.3 mph 0.00 in   Mostly Cloudy
8:50 PM 50.0 °F - 28.4 °F 43% 29.73 in 10.0 mi South 21.9 mph 27.6 mph 0.00 in   Mostly Cloudy
9:10 PM 50.0 °F - 28.4 °F 43% 29.75 in 10.0 mi South 18.4 mph - 0.00 in   Overcast
9:30 PM 46.4 °F 41.5 °F 33.8 °F 62% 29.79 in 5.0 mi South 10.4 mph - 0.01 in   Mostly Cloudy
9:50 PM 44.6 °F 38.8 °F 37.4 °F 76% 29.81 in 8.0 mi South 11.5 mph - 0.03 in   Mostly Cloudy
10:10 PM 44.6 °F 37.2 °F 37.4 °F 76% 29.78 in 10.0 mi South 17.3 mph - 0.00 in   Mostly Cloudy
10:30 PM 44.6 °F 39.2 °F 37.4 °F 76% 29.77 in 5.0 mi South 10.4 mph 18.4 mph 0.04 in   Mostly Cloudy
10:50 PM 44.6 °F 38.4 °F 37.4 °F 76% 29.75 in 9.0 mi South 12.7 mph 16.1 mph 0.06 in   Mostly Cloudy
11:10 PM 44.6 °F 38.1 °F 35.6 °F 71% 29.74 in 10.0 mi SSE 13.8 mph - 0.00 in   Partly Cloudy
11:30 PM 44.6 °F 38.4 °F 35.6 °F 71% 29.73 in 10.0 mi SSE 12.7 mph - 0.00 in   Scattered Clouds
11:50 PM 44.6 °F 37.8 °F 33.8 °F 66% 29.74 in 10.0 mi SSE 15.0 mph - 0.00 in   Scattered Clouds